Location: Hac?musa Deresi
(39.1694°N, 32.2508°E)
Time: 11:11:50
(UTC+00:00)

Cosmos 2263 - Pass Details

Date: 22 April 2026
Orbit: 830 x 864 km, 70.9° (Epoch: 20 May)

Event Time Altitude Azimuth Distance (km) Brightness Sun altitude
Rises 18:54:46 0° 339° (NNW) 3,396 8.4 -24.3°
Reaches altitude 10° 18:57:13 10° 342° (NNW) 2,463 7.4 -24.7°
Maximum altitude 19:02:51 68° 65° (ENE) 911 4.2 -25.5°
Enters shadow 19:03:16 65° 93° (E) 927 4.1 -25.5°
